EW9007 Weather Reports


time (UTC)temp
F
wind
direction
speed
knots
gust
knots
rain 1hr
in
rain 24hr
in
rain mn
in
humidity
%
barometer
mb
20260906184019 89 162 0.0 0.9 0.00 0.00 0.00 59 1015.0
20260906183510 88 146 0.0 0.9 0.00 0.00 0.00 59 1015.1
20260906183003 88 159 0.0 0.0 0.00 0.00 0.00 58 1015.1
20260906182502 88 172 0.0 0.0 0.00 0.00 0.00 59 1015.1
20260906182003 88 157 0.0 0.0 0.00 0.00 0.00 61 1015.1
20260906181503 88 172 0.0 0.0 0.00 0.00 0.00 61 1015.2
20260906181003 88 173 0.0 0.0 0.00 0.00 0.00 61 1015.2
20260906180506 88 166 0.0 0.0 0.00 0.00 0.00 61 1015.2
20260906180004 88 158 0.0 0.0 0.00 0.00 0.00 62 1015.2
20260906175505 87 132 0.0 0.9 0.00 0.00 0.00 63 1015.3
20260906175004 87 193 0.0 0.9 0.00 0.00 0.00 64 1015.3
20260906174504 87 147 0.0 0.9 0.00 0.00 0.00 64 1015.4
20260906174002 87 159 0.0 0.0 0.00 0.00 0.00 65 1015.5
20260906173502 87 173 0.0 0.9 0.00 0.00 0.00 65 1015.5
20260906173004 87 149 0.0 0.9 0.00 0.00 0.00 66 1015.4
20260906172504 86 144 0.0 0.0 0.00 0.00 0.00 66 1015.6
20260906172003 85 101 0.0 0.0 0.00 0.00 0.00 67 1015.7
20260906171502 85 170 0.0 0.9 0.00 0.00 0.00 68 1015.9
20260906171003 85 136 0.0 5.2 0.00 0.00 0.00 69 1015.9
20260906170505 84 171 0.0 5.2 0.00 0.00 0.00 70 1016.1
20260906170003 84 128 0.0 7.0 0.00 0.00 0.00 70 1016.2
20260906165504 84 198 0.0 7.0 0.00 0.00 0.00 70 1016.2
20260906165006 84 140 0.0 6.1 0.00 0.00 0.00 71 1016.1
20260906164505 83 122 0.0 6.1 0.00 0.00 0.00 71 1016.2
20260906164004 83 142 0.0 4.3 0.00 0.00 0.00 72 1016.2
20260906163503 83 136 0.0 2.6 0.00 0.00 0.00 73 1016.3
20260906163005 83 138 0.0 2.6 0.00 0.00 0.00 75 1016.3
20260906162503 82 161 0.0 0.0 0.00 0.00 0.00 76 1016.3
20260906162003 82 107 0.0 6.1 0.00 0.00 0.00 76 1016.3
20260906161505 82 146 0.0 6.1 0.00 0.00 0.00 77 1016.5
20260906161006 81 132 0.0 0.0 0.00 0.00 0.00 77 1016.5
20260906160503 81 119 0.0 0.0 0.00 0.00 0.00 77 1016.4
20260906160003 81 123 0.0 0.0 0.00 0.00 0.00 78 1016.4
20260906155503 81 294 0.0 0.0 0.00 0.00 0.00 79 1016.6
20260906155003 81 294 0.0 0.0 0.00 0.00 0.00 80 1016.5
20260906154509 81 294 0.0 0.0 0.00 0.00 0.00 81 1016.5
20260906154003 80 294 0.0 0.0 0.00 0.00 0.00 80 1016.5
20260906153503 80 294 0.0 0.0 0.00 0.00 0.00 80 1016.7
20260906153011 80 294 0.0 0.0 0.00 0.00 0.00 81 1016.6
20260906152504 80 294 0.0 0.0 0.00 0.00 0.00 81 1016.7
20260906152003 80 296 0.0 0.0 0.00 0.00 0.00 81 1016.5
20260906151505 80 296 0.0 0.0 0.00 0.00 0.00 81 1016.4
20260906151003 80 296 0.0 0.0 0.00 0.00 0.00 81 1016.5
20260906150503 80 268 0.0 6.1 0.00 0.00 0.00 81 1016.5
20260906150010 80 159 0.0 6.1 0.00 0.00 0.00 81 1016.1
20260906145503 80 135 1.7 6.1 0.00 0.00 0.00 82 1015.9
20260906145004 80 138 0.0 7.0 0.00 0.00 0.00 83 1015.9
20260906144508 80 127 1.7 8.7 0.00 0.00 0.00 83 1015.8
20260906144004 80 120 0.9 8.7 0.00 0.00 0.00 83 1015.7
20260906143503 79 110 1.7 7.8 0.00 0.00 0.00 84 1015.7
20260906143007 79 135 0.9 8.7 0.00 0.00 0.00 84 1015.6
20260906142503 79 126 4.3 8.7 0.00 0.00 0.00 84 1015.7
20260906142004 79 135 4.3 8.7 0.00 0.00 0.00 84 1015.8
20260906141505 79 132 2.6 10.4 0.00 0.00 0.00 84 1015.7
20260906141004 79 147 5.2 10.4 0.00 0.00 0.00 85 1015.7
20260906140505 79 155 5.2 11.3 0.00 0.00 0.00 85 1015.8
20260906140006 79 130 6.1 11.3 0.00 0.00 0.00 86 1015.8
20260906135503 79 117 5.2 10.4 0.00 0.00 0.00 87 1015.8
20260906135004 79 150 3.5 10.4 0.00 0.00 0.00 87 1015.9
20260906134511 79 143 1.7 7.8 0.00 0.00 0.00 87 1015.9
20260906134003 79 130 5.2 7.8 0.00 0.00 0.00 87 1015.9
20260906133503 79 119 4.3 7.8 0.00 0.00 0.00 88 1015.9
20260906133016 79 147 3.5 9.6 0.00 0.00 0.00 88 1015.9
20260906132504 79 134 5.2 9.6 0.00 0.00 0.00 89 1016.0
20260906132003 79 162 4.3 8.7 0.00 0.00 0.00 90 1015.9
20260906131509 78 96 1.7 8.7 0.00 0.00 0.00 91 1015.9
20260906131003 78 153 4.3 8.7 0.00 0.00 0.00 91 1015.8
20260906130505 78 108 3.5 8.7 0.00 0.00 0.00 91 1015.7
20260906130009 78 123 4.3 7.8 0.00 0.00 0.00 92 1015.7
20260906125504 78 135 2.6 7.8 0.00 0.00 0.00 92 1015.7
20260906125004 77 120 3.5 7.8 0.00 0.00 0.00 92 1015.5
20260906124509 77 123 3.5 7.8 0.00 0.00 0.00 92 1015.4
20260906124003 77 144 3.5 7.8 0.00 0.00 0.00 92 1015.4
20260906123502 77 134 4.3 7.8 0.00 0.00 0.00 92 1015.2
20260906123022 77 131 3.5 7.8 0.00 0.00 0.00 92 1015.3
20260906122507 77 139 2.6 7.8 0.00 0.00 0.00 92 1015.2
20260906122006 77 121 2.6 7.8 0.00 0.00 0.00 92 1015.2
20260906121510 77 135 2.6 7.0 0.00 0.00 0.00 92 1015.1
20260906121009 77 144 3.5 6.1 0.00 0.00 0.00 92 1015.1
20260906120504 77 142 2.6 7.0 0.00 0.00 0.00 92 1015.2
20260906120013 77 117 2.6 7.0 0.00 0.00 0.00 92 1015.1
20260906115508 76 128 2.6 7.0 0.00 0.00 0.00 91 1015.0
20260906115003 76 115 2.6 7.0 0.00 0.00 0.00 91 1014.8
20260906114514 76 142 2.6 4.3 0.00 0.00 0.00 91 1014.8
20260906114003 76 137 1.7 4.3 0.00 0.00 0.00 90 1014.7
20260906113506 76 135 1.7 5.2 0.00 0.00 0.00 90 1014.7
20260906113011 76 135 2.6 6.1 0.00 0.00 0.00 90 1014.4
20260906112506 76 119 3.5 7.0 0.00 0.00 0.00 90 1014.6
20260906112008 77 123 3.5 7.0 0.00 0.00 0.00 90 1014.5
20260906111511 77 118 2.6 7.0 0.00 0.00 0.00 90 1014.6
20260906111003 76 89 1.7 7.0 0.00 0.00 0.00 90 1014.7
20260906110506 76 144 1.7 3.5 0.00 0.00 0.00 90 1014.8
20260906110012 76 144 1.7 2.6 0.00 0.00 0.00 89 1014.9
20260906105507 76 144 0.9 2.6 0.00 0.00 0.00 89 1014.9
20260906105004 76 144 0.0 0.0 0.00 0.00 0.00 89 1014.9
20260906104512 76 144 0.0 0.0 0.00 0.00 0.00 89 1014.9
20260906104006 76 144 0.0 0.9 0.00 0.00 0.00 89 1014.8
20260906103504 77 144 0.0 0.9 0.00 0.00 0.00 88 1014.7
20260906103012 77 144 0.0 1.7 0.00 0.00 0.00 88 1014.7
20260906102505 77 144 0.0 2.6 0.00 0.00 0.00 88 1014.5
20260906102004 77 144 0.9 3.5 0.00 0.00 0.00 88 1014.4
20260906101524 77 144 0.9 3.5 0.00 0.00 0.00 88 1014.4
20260906101005 77 144 1.7 3.5 0.00 0.00 0.00 88 1014.3
20260906100511 77 144 1.7 4.3 0.00 0.00 0.00 88 1014.3
20260906100017 77 144 1.7 6.1 0.00 0.00 0.00 88 1014.3
20260906095507 77 131 1.7 6.1 0.00 0.00 0.00 87 1014.2
20260906095004 77 142 0.9 3.5 0.00 0.00 0.00 87 1014.1
20260906094513 77 142 0.9 2.6 0.00 0.00 0.00 87 1014.1
20260906094007 77 142 0.9 2.6 0.00 0.00 0.00 87 1014.2
20260906093508 77 142 0.9 3.5 0.00 0.00 0.00 87 1014.3
20260906093017 77 142 2.6 3.5 0.00 0.00 0.00 86 1014.3
20260906092508 77 142 1.7 4.3 0.00 0.00 0.00 86 1014.2
20260906092013 77 142 0.9 4.3 0.00 0.00 0.00 86 1014.2
20260906091516 77 142 1.7 4.3 0.00 0.00 0.00 86 1014.2
20260906091008 77 142 1.7 3.5 0.00 0.00 0.00 85 1014.2
20260906090505 77 142 1.7 4.3 0.00 0.00 0.00 85 1014.2
20260906090035 77 142 2.6 4.3 0.00 0.00 0.00 85 1014.2
20260906085508 77 142 1.7 3.5 0.00 0.00 0.00 85 1014.3
20260906085010 77 142 1.7 3.5 0.00 0.00 0.00 85 1014.3
20260906084512 77 142 0.9 4.3 0.00 0.00 0.00 85 1014.3
20260906084005 77 142 0.9 4.3 0.00 0.00 0.00 85 1014.3
20260906083508 77 134 0.0 3.5 0.00 0.00 0.00 85 1014.3
20260906083017 77 134 1.7 4.3 0.00 0.00 0.00 85 1014.2
20260906082506 77 140 1.7 6.1 0.00 0.00 0.00 85 1014.2
20260906082006 77 140 1.7 6.1 0.00 0.00 0.00 84 1014.1
20260906081503 77 133 1.7 6.1 0.00 0.00 0.00 84 1014.2
20260906081002 77 128 2.6 6.1 0.00 0.00 0.00 84 1014.1
20260906080504 78 134 2.6 5.2 0.00 0.00 0.00 84 1014.2
20260906080004 78 144 1.7 5.2 0.00 0.00 0.00 84 1014.2
20260906075503 78 144 2.6 6.1 0.00 0.00 0.00 84 1014.2
20260906075006 78 142 2.6 6.1 0.00 0.00 0.00 84 1014.2
20260906074507 78 145 2.6 6.1 0.00 0.00 0.00 83 1014.2
20260906074003 78 121 3.5 6.1 0.00 0.00 0.00 83 1014.2
20260906073504 78 131 1.7 6.1 0.00 0.00 0.00 83 1014.2
20260906073012 78 157 2.6 7.0 0.00 0.00 0.00 82 1014.1
20260906072510 79 145 1.7 7.8 0.00 0.00 0.00 82 1014.1
20260906072005 79 152 4.3 8.7 0.00 0.00 0.00 82 1014.2
20260906071508 79 134 3.5 8.7 0.00 0.00 0.00 82 1014.2
20260906071010 79 122 4.3 7.8 0.00 0.00 0.00 82 1014.3
20260906070505 79 149 3.5 7.0 0.00 0.00 0.00 82 1014.4
20260906070004 79 142 2.6 7.0 0.00 0.00 0.00 82 1014.3
20260906065507 79 141 2.6 7.0 0.00 0.00 0.00 82 1014.3
20260906065003 79 128 2.6 7.0 0.00 0.00 0.00 82 1014.3
20260906064504 79 140 2.6 7.0 0.00 0.00 0.00 82 1014.4
20260906064003 79 140 1.7 5.2 0.00 0.00 0.00 82 1014.3
20260906063504 79 111 2.6 6.1 0.00 0.00 0.00 82 1014.5
20260906063005 79 130 1.7 6.1 0.00 0.00 0.00 82 1014.6
20260906062504 79 143 1.7 6.1 0.00 0.00 0.00 82 1014.7
20260906062006 79 134 1.7 6.1 0.00 0.00 0.00 82 1014.6
20260906061518 79 111 1.7 4.3 0.00 0.00 0.00 82 1014.6
20260906061002 79 127 2.6 5.2 0.00 0.00 0.00 82 1014.6
20260906060506 79 140 1.7 6.1 0.00 0.00 0.00 81 1014.6
20260906060016 79 101 2.6 7.0 0.00 0.00 0.00 81 1014.6
20260906055505 79 146 1.7 7.0 0.00 0.00 0.00 81 1014.6
20260906055004 80 141 1.7 6.1 0.00 0.00 0.00 81 1014.7
20260906054513 80 128 1.7 6.1 0.00 0.00 0.00 80 1014.6
20260906054003 80 136 1.7 6.1 0.00 0.00 0.00 80 1014.5
20260906053503 80 138 2.6 6.1 0.00 0.00 0.00 80 1014.6
20260906053007 80 127 2.6 7.8 0.00 0.00 0.00 80 1014.6
20260906052504 80 117 1.7 7.8 0.00 0.00 0.00 79 1014.6
20260906052008 80 124 3.5 7.0 0.00 0.00 0.00 79 1014.7
20260906051506 80 129 2.6 6.1 0.00 0.00 0.00 79 1014.6
20260906051008 80 123 2.6 6.1 0.00 0.00 0.00 79 1014.4
20260906050506 81 138 3.5 7.0 0.00 0.00 0.00 79 1014.5
20260906050004 81 138 2.6 7.0 0.00 0.00 0.00 79 1014.4
20260906045504 81 126 3.5 7.8 0.00 0.00 0.00 79 1014.6
20260906045012 81 138 2.6 7.8 0.00 0.00 0.00 79 1014.4
20260906044524 81 98 3.5 7.0 0.00 0.00 0.00 79 1014.4
20260906044006 81 128 3.5 7.0 0.00 0.00 0.00 79 1014.5
20260906043503 81 127 1.7 6.1 0.00 0.00 0.00 79 1014.3
20260906043005 81 113 1.7 7.0 0.00 0.00 0.00 78 1014.5
20260906042503 81 112 2.6 7.0 0.00 0.00 0.00 78 1014.4
20260906042004 81 104 2.6 7.0 0.00 0.00 0.00 78 1014.4
20260906041508 81 118 1.7 6.1 0.00 0.00 0.00 78 1014.3
20260906041007 81 103 2.6 6.1 0.00 0.00 0.00 78 1014.5
20260906040503 81 98 2.6 6.1 0.00 0.00 0.00 78 1014.5
20260906040022 81 93 2.6 6.1 0.00 0.00 0.00 77 1014.5
20260906035509 82 108 2.6 6.1 0.00 0.00 0.00 77 1014.5
20260906035004 82 122 2.6 6.1 0.00 0.00 0.00 77 1014.6
20260906034508 82 98 1.7 3.5 0.00 0.00 0.00 77 1014.5
20260906034008 82 110 1.7 6.1 0.00 0.00 0.00 77 1014.5
20260906033510 82 102 1.7 6.1 0.00 0.00 0.00 76 1014.4
20260906033005 82 105 0.9 3.5 0.00 0.00 0.00 76 1014.4
20260906032507 82 115 1.7 3.5 0.00 0.00 0.00 76 1014.4
20260906032004 82 100 0.9 5.2 0.00 0.00 0.00 75 1014.4
20260906031504 82 89 0.9 5.2 0.00 0.00 0.00 75 1014.3
20260906031003 83 89 1.7 5.2 0.00 0.00 0.00 75 1014.3
20260906030504 83 100 1.7 5.2 0.00 0.00 0.00 75 1014.1
20260906030012 83 120 1.7 6.1 0.00 0.00 0.00 74 1014.0
20260906025507 83 120 1.7 6.1 0.00 0.00 0.00 74 1013.8
20260906025005 83 121 2.6 6.1 0.00 0.00 0.00 74 1013.8
20260906024518 83 121 1.7 6.1 0.00 0.00 0.00 74 1013.8
20260906024014 83 135 1.7 6.1 0.00 0.00 0.00 74 1013.7
20260906023506 83 148 2.6 6.1 0.00 0.00 0.00 74 1013.5
20260906023016 84 88 3.5 7.0 0.00 0.00 0.00 73 1013.4
20260906022511 84 108 2.6 7.0 0.00 0.00 0.00 73 1013.6
20260906022004 84 87 2.6 6.1 0.00 0.00 0.00 73 1013.4
20260906021512 84 85 1.7 5.2 0.00 0.00 0.00 72 1013.4
20260906021004 84 81 1.7 5.2 0.00 0.00 0.00 72 1013.3
20260906020513 84 94 1.7 6.1 0.00 0.00 0.00 72 1013.2
20260906020011 84 103 2.6 7.0 0.00 0.00 0.00 71 1013.0
20260906015504 85 98 2.6 7.0 0.00 0.00 0.00 71 1012.9
20260906015004 85 99 1.7 5.2 0.00 0.00 0.00 70 1012.8
20260906014517 85 97 0.9 5.2 0.00 0.00 0.00 70 1012.9
20260906014005 85 86 1.7 7.0 0.00 0.00 0.00 70 1012.8
20260906013509 85 101 2.6 7.0 0.00 0.00 0.00 69 1012.7
20260906013016 86 90 3.5 7.0 0.00 0.00 0.00 69 1012.6
20260906012503 86 77 1.7 4.3 0.00 0.00 0.00 68 1012.7
20260906012008 86 39 1.7 4.3 0.00 0.00 0.00 68 1012.7
20260906011527 87 32 0.0 2.6 0.00 0.00 0.00 67 1012.6
20260906011016 87 65 0.0 2.6 0.00 0.00 0.00 67 1012.4
20260906010504 87 100 0.0 0.9 0.00 0.00 0.00 66 1012.5
20260906010023 87 111 0.0 0.9 0.00 0.00 0.00 66 1012.5
20260906005502 88 49 0.0 0.0 0.00 0.00 0.00 65 1012.4
20260906005006 88 36 0.0 2.6 0.00 0.00 0.00 64 1012.3
20260906004508 88 72 0.0 3.5 0.00 0.00 0.00 64 1012.3
20260906004007 88 117 0.0 4.3 0.00 0.00 0.00 63 1012.2
20260906003507 88 134 0.0 6.1 0.00 0.00 0.00 63 1012.2
20260906003011 89 113 0.0 6.1 0.00 0.00 0.00 62 1012.1
20260906002507 89 132 0.0 3.5 0.00 0.00 0.00 61 1012.1
20260906002011 89 137 0.9 3.5 0.00 0.00 0.00 61 1012.1
20260906001506 89 149 0.0 4.3 0.00 0.00 0.00 60 1012.1
20260906001003 90 127 0.0 4.3 0.00 0.00 0.00 60 1012.1
20260906000514 90 144 0.0 4.3 0.00 0.00 0.00 60 1012.2
20260906000027 90 116 0.0 3.5 0.00 0.00 0.00 59 1012.3
20260905235507 90 120 0.0 6.1 0.00 0.00 0.00 59 1012.3
20260905235009 91 140 0.0 6.1 0.00 0.00 0.00 58 1012.3
20260905234520 91 127 1.7 6.1 0.00 0.00 0.00 58 1012.3
20260905234006 91 144 0.0 6.1 0.00 0.00 0.00 57 1012.2
20260905233510 91 142 1.7 7.0 0.00 0.00 0.00 57 1012.2
20260905233011 91 129 0.9 7.0 0.00 0.00 0.00 56 1012.2
20260905232502 91 136 0.9 6.1 0.00 0.00 0.00 56 1012.2
20260905232006 91 111 0.0 3.5 0.00 0.00 0.00 56 1012.1
20260905231003 92 142 0.0 4.3 0.00 0.00 0.00 55 1012.0
20260905230503 92 133 0.0 5.2 0.00 0.00 0.00 54 1012.0
20260905230009 92 148 0.0 5.2 0.00 0.00 0.00 55 1012.0
20260905225503 92 126 0.0 3.5 0.00 0.00 0.00 56 1012.0
20260905225003 92 125 0.0 3.5 0.00 0.00 0.00 55 1012.0
20260905224503 91 127 0.0 3.5 0.00 0.00 0.00 56 1012.1
20260905224005 91 136 0.0 3.5 0.00 0.00 0.00 56 1012.0
20260905223514 91 141 0.0 2.6 0.00 0.00 0.00 55 1012.0
20260905223006 91 140 0.0 3.5 0.00 0.00 0.00 55 1012.0
20260905222508 91 119 0.0 4.3 0.00 0.00 0.00 55 1012.0
20260905222010 91 166 0.0 7.0 0.00 0.00 0.00 55 1011.9
20260905221506 91 163 0.0 7.0 0.00 0.00 0.00 54 1011.8
20260905221004 91 128 0.0 8.7 0.00 0.00 0.00 54 1011.8
20260905220507 91 145 0.0 8.7 0.00 0.00 0.00 54 1011.8
20260905220018 91 127 0.0 8.7 0.00 0.00 0.00 53 1011.9
20260905215504 91 129 0.0 8.7 0.00 0.00 0.00 53 1012.0
20260905215003 91 134 0.0 7.0 0.00 0.00 0.00 54 1012.1
20260905214503 91 147 0.0 7.0 0.00 0.00 0.00 53 1012.0
20260905214004 91 112 0.0 3.5 0.00 0.00 0.00 53 1012.2
20260905213503 91 152 0.0 6.1 0.00 0.00 0.00 53 1012.2
20260905213003 91 108 0.0 6.1 0.00 0.00 0.00 53 1012.3
20260905212513 90 113 0.0 5.2 0.00 0.00 0.00 52 1012.4
20260905212003 91 97 0.0 6.1 0.00 0.00 0.00 52 1012.6
20260905211510 91 124 0.9 6.1 0.00 0.00 0.00 52 1012.6
20260905211010 91 128 0.9 6.1 0.00 0.00 0.00 51 1012.7
20260905210502 91 114 0.0 7.8 0.00 0.00 0.00 50 1012.8
20260905210007 91 136 0.0 7.8 0.00 0.00 0.00 51 1012.9
20260905205507 91 131 0.0 9.6 0.00 0.00 0.00 52 1012.9
20260905205010 90 110 0.0 9.6 0.00 0.00 0.00 51 1013.0
20260905204503 90 126 0.0 9.6 0.00 0.00 0.00 52 1013.0
20260905204007 90 104 3.5 9.6 0.00 0.00 0.00 51 1013.2
20260905203510 91 128 0.9 8.7 0.00 0.00 0.00 50 1013.3
20260905203003 91 121 0.0 7.8 0.00 0.00 0.00 51 1013.4
20260905202504 91 103 0.0 10.4 0.00 0.00 0.00 53 1013.5
20260905202003 91 105 0.9 10.4 0.00 0.00 0.00 54 1013.7
20260905201523 91 133 1.7 10.4 0.00 0.00 0.00 52 1013.8
20260905201006 91 86 0.0 7.8 0.00 0.00 0.00 53 1014.0
20260905200504 91 121 0.0 9.6 0.00 0.00 0.00 52 1014.1
20260905200010 91 126 0.9 9.6 0.00 0.00 0.00 52 1014.1
20260905195511 91 127 0.9 8.7 0.00 0.00 0.00 52 1014.2
20260905195005 91 76 0.9 7.0 0.00 0.00 0.00 54 1014.1
20260905194512 91 118 0.0 11.3 0.00 0.00 0.00 54 1014.1
20260905194013 90 105 2.6 12.2 0.00 0.00 0.00 53 1014.3
20260905193503 90 86 2.6 12.2 0.00 0.00 0.00 54 1014.3
20260905193007 91 89 2.6 9.6 0.00 0.00 0.00 55 1014.5
20260905192512 90 135 1.7 9.6 0.00 0.00 0.00 55 1014.6
20260905192013 90 94 1.7 12.2 0.00 0.00 0.00 55 1014.6
20260905191503 90 42 3.5 12.2 0.00 0.00 0.00 55 1014.7
20260905191004 90 98 2.6 10.4 0.00 0.00 0.00 55 1014.9
20260905190504 90 109 1.7 11.3 0.00 0.00 0.00 57 1015.1
20260905190007 89 111 1.7 13.0 0.00 0.00 0.00 57 1015.1
20260905185504 89 82 4.3 15.6 0.00 0.00 0.00 57 1015.3
20260905185010 89 107 5.2 15.6 0.00 0.00 0.00 57 1015.5
20260905184527 89 76 1.7 13.0 0.00 0.00 0.00 58 1015.5